Powrót do katalogu

STARLINK-5428

AktywnyŁącznośćVLEO
NORAD 54800·PAYLOAD·🇺🇸 United States

Wystrzelony Dec 17, 2022 z Cape Canaveral Space Force Station

Loading…

Następne Przeloty (najbliższe 24 godziny)

TLE

ŚwieżeSource: CelesTrak SupGP

Epoka: Sep 15, 2026, 01:32 UTC

1 54800C 22175AU  26258.06437500 -.00012307  00000+0 -39573-3 0  2584
2 54800  53.1576 257.1227 0001308  94.3124  31.4860 15.31710513    17

Śledź STARLINK-5428 w czasie rzeczywistym z AllMySat

Download on the App Store